Probability
55 48 84 81 65 68 65 65 68 74 71 65 61 68 87 77 77 81 87 84 84 84 71 74 74 71 74 71 71 77 84 84 81 87 84 90 77 71 77 84 84 84 84
42 45 84 77 61 58 65 58 52 55 48 55 55 61 68 71 81 81 77 84 81 84 77 74 74 77 71 74 68 74 71 77 77 84 94 94 84 71 68 77 77 81 81
32 39 61 65 55 45 42 32 39 32 32 35 45 45 65 68 74 71 77 81 81 77 81 81 71 77 77 71 65 74 74 74 81 81 87 84 84 74 71 65 71 68 71
19 29 35 58 39 39 26 29 26 23 19 16 16 29 42 58 68 58 55 61 65 71 77 74 74 81 77 74 74 77 68 74 77 94 71 71 65 74 71 71 71 71 68
23 23 39 52 42 32 23 23 19 19 16 13 23 26 35 39 52 48 55 61 58 61 61 68 68 68 68 71 74 74 74 74 84 84 65 61 58 77 65 71 65 61 65
19 16 26 42 26 19 26 23 19 13 13 6 13 13 19 19 29 39 45 45 55 52 55 65 61 61 68 65 68 68 74 74 71 55 61 65 65 77 52 61 61 45 52
10 13 19 32 26 23 16 16 10 10 13 10 3 3 13 16 26 32 35 42 39 42 52 61 65 48 61 65 58 58 65 74 61 42 55 68 61 74 52 52 58 48 55
10 6 19 45 32 23 16 10 10 13 10 10 10 13 16 13 16 23 29 32 39 42 48 48 52 48 48 61 55 58 61 61 29 19 42 52 77 71 55 48 52 55 58
10 6 6 6 16 26 16 13 6 10 6 6 10 10 16 13 10 10 23 26 42 42 35 35 48 42 42 52 52 55 65 68 52 16 16 48 77 77 48 48 45 65 68
6 6 6 3 3 6 10 19 6 6 10 13 16 13 10 6 19 23 29 26 26 35 32 32 39 48 42 61 58 58 71 74 32 10 16 39 81 61 48 45 52 58 74
3 3 6 6 3 3 3 6 10 6 13 10 10 16 16 0 3 10 13 19 16 16 29 35 35 42 39 61 61 58 61 26 10 10 16 68 84 48 42 48 58 58 68
3 3 3 3 3 3 3 3 3 6 6 6 3 3 3 3 0 0 16 23 26 29 35 42 39 32 32 19 32 58 13 13 13 13 23 81 74 42 32 48 65 61 74
0 0 3 3 3 3 3 3 3 0 0 0 3 3 3 3 0 0 0 6 16 16 10 19 23 10 6 6 10 13 3 6 3 10 26 77 65 39 48 48 74 81 74
0 0 3 3 0 0 0 0 0 0 0 0 0 0 0 0 0 0 0 0 3 3 6 6 6 3 16 10 13 6 6 6 10 19 13 65 74 68 52 61 65 77 77
0 0 3 3 3 0 0 0 0 0 0 0 0 0 0 0 0 0 0 0 3 3 3 3 6 3 3 10 6 3 6 13 10 13 13 65 71 68 52 68 65 68 74
0 3 3 3 3 0 0 0 0 0 0 0 0 0 0 0 0 0 0 0 3 3 3 3 3 0 0 3 3 3 6 10 6 3 3 32 68 71 74 71 68 68 68
0 3 3 3 3 0 0 0 0 0 0 0 0 0 0 0 0 0 0 0 3 3 3 0 3 3 0 3 6 3 10 6 3 6 3 13 10 55 84 81 77 74 68
3 3 3 3 3 0 3 3 3 0 0 0 0 0 0 0 0 0 0 0 3 3 3 0 3 0 0 0 3 0 0 6 0 0 0 10 6 0 42 87 84 84 74
3 3 3 3 3 3 3 3 3 3 0 0 0 0 0 0 0 0 0 0 0 3 3 0 0 0 0 0 0 3 6 6 0 0 0 0 6 0 3 26 74 77 77
3 3 3 3 3 3 3 3 3 3 0 0 0 0 0 0 0 0 0 0 0 3 3 0 0 0 0 0 0 0 0 6 0 0 0 0 0 3 0 0 13 35 65
0 0 0 0 0 0 0 0 0 0 0 0 0 0 0 0 0 0 0 0 0 0 0 0 3 0 0 0 0 0 0 0 0 0 0 0 0 0 3 0 0 0 13
0 0 0 0 0 0 0 0 0 0 0 0 0 0 0 0 0 0 3 0 0 0 0 0 3 3 0 0 0 0 0 0 0 0 3 0 0 0 0 3 0 0 0
0 0 0 0 0 0 0 0 0 0 0 0 0 0 0 0 0 3 0 3 0 0 0 0 3 3 0 0 0 0 0 0 0 0 0 3 0 0 0 0 0 0 3
0 0 0 0 0 0 0 0 0 0 0 0 0 0 0 0 0 3 0 3 3 0 0 0 3 3 0 0 0 0 0 0 0 0 0 0 0 0 0 0 0 0 3
0 0 0 0 0 0 0 0 0 0 0 0 0 0 0 0 0 0 3 0 3 0 0 0 0 3 0 0 0 0 0 0 0 0 0 0 0 0 0 0 0 0 0
0 0 0 0 0 0 0 0 0 0 0 0 0 0 0 0 0 0 0 0 0 0 3 3 3 3 0 0 0 0 0 0 0 0 0 0 0 0 0 0 0 0 3
Height
5869 5868 5868 5868 5867 5867 5867 5867 5867 5866 5866 5866 5866 5866 5867 5867 5867 5868 5869 5869 5870 5870 5871 5871 5871 5871 5871 5872 5872 5872 5871 5871 5870 5870 5870 5869 5869 5869 5869 5868 5868 5868 5868
5867 5867 5866 5866 5865 5865 5865 5864 5864 5864 5864 5864 5864 5864 5864 5864 5865 5866 5866 5867 5867 5868 5868 5868 5869 5869 5869 5870 5870 5870 5870 5869 5869 5869 5869 5868 5868 5868 5868 5868 5868 5867 5868
5866 5865 5864 5863 5863 5862 5862 5862 5861 5861 5861 5861 5861 5861 5861 5861 5862 5863 5863 5864 5864 5865 5865 5866 5866 5867 5867 5868 5868 5868 5868 5868 5868 5868 5868 5867 5867 5867 5867 5867 5867 5867 5867
5864 5863 5862 5861 5860 5860 5859 5859 5858 5858 5858 5857 5857 5857 5857 5858 5859 5859 5860 5860 5861 5861 5862 5863 5863 5864 5864 5865 5866 5866 5866 5866 5866 5866 5866 5865 5866 5867 5867 5867 5867 5867 5867
5862 5860 5859 5858 5858 5857 5856 5855 5855 5854 5854 5854 5854 5854 5854 5854 5855 5855 5856 5857 5857 5858 5859 5859 5860 5861 5862 5862 5863 5864 5864 5864 5865 5865 5865 5865 5865 5866 5866 5866 5866 5867 5867
5859 5858 5857 5856 5855 5854 5853 5852 5851 5850 5850 5850 5849 5849 5849 5849 5850 5851 5851 5852 5853 5854 5855 5856 5856 5857 5858 5859 5860 5861 5862 5862 5863 5863 5864 5864 5864 5865 5865 5866 5866 5866 5867
5856 5855 5853 5852 5851 5850 5849 5848 5847 5846 5846 5845 5845 5844 5844 5844 5845 5845 5846 5847 5848 5849 5850 5851 5852 5853 5855 5856 5857 5858 5859 5860 5860 5861 5862 5863 5863 5864 5864 5865 5865 5866 5867
5853 5852 5851 5849 5848 5847 5846 5844 5843 5842 5841 5840 5840 5839 5839 5839 5839 5840 5841 5842 5843 5844 5845 5847 5848 5849 5851 5852 5854 5855 5856 5857 5858 5859 5860 5861 5861 5862 5863 5864 5865 5866 5867
5851 5850 5848 5847 5845 5844 5842 5841 5839 5838 5837 5836 5835 5834 5834 5833 5833 5834 5835 5836 5837 5838 5840 5841 5843 5844 5846 5848 5850 5851 5853 5854 5855 5857 5858 5859 5860 5861 5862 5863 5864 5865 5866
5848 5847 5845 5844 5843 5841 5839 5837 5835 5834 5833 5832 5830 5830 5829 5828 5828 5828 5829 5830 5831 5832 5834 5836 5837 5839 5841 5843 5845 5847 5849 5850 5852 5854 5856 5857 5857 5859 5860 5862 5863 5864 5865
5847 5845 5843 5842 5840 5838 5836 5835 5833 5831 5829 5828 5827 5825 5824 5823 5823 5823 5823 5824 5825 5826 5828 5829 5831 5833 5835 5838 5840 5842 5844 5847 5849 5851 5853 5854 5855 5857 5859 5860 5862 5863 5864
5845 5844 5842 5840 5838 5836 5834 5832 5830 5828 5827 5825 5823 5822 5820 5819 5818 5818 5818 5818 5819 5820 5822 5823 5825 5828 5830 5833 5836 5838 5840 5843 5845 5848 5850 5851 5853 5855 5857 5858 5860 5862 5863
5844 5842 5841 5839 5837 5835 5833 5830 5828 5826 5824 5822 5820 5818 5816 5815 5813 5813 5813 5813 5813 5814 5815 5817 5819 5822 5825 5827 5830 5833 5836 5838 5841 5844 5846 5848 5850 5852 5854 5856 5858 5860 5862
5843 5841 5839 5838 5836 5834 5831 5829 5826 5824 5821 5819 5817 5814 5813 5811 5809 5808 5807 5807 5808 5809 5810 5811 5813 5815 5819 5822 5824 5828 5831 5834 5837 5840 5842 5844 5847 5849 5852 5854 5856 5858 5860
5842 5840 5839 5837 5835 5832 5830 5827 5825 5822 5819 5816 5813 5811 5809 5807 5805 5803 5802 5802 5802 5803 5804 5805 5807 5810 5812 5816 5818 5822 5825 5828 5831 5835 5837 5840 5843 5846 5848 5851 5854 5856 5858
5841 5839 5838 5836 5834 5831 5829 5826 5823 5820 5817 5814 5811 5808 5805 5803 5801 5799 5797 5796 5796 5797 5798 5799 5801 5803 5806 5809 5813 5816 5820 5822 5826 5830 5833 5836 5839 5842 5845 5848 5851 5854 5856
5840 5838 5837 5835 5833 5830 5828 5825 5822 5818 5815 5812 5808 5805 5802 5799 5797 5794 5793 5792 5791 5791 5792 5793 5795 5797 5800 5803 5807 5810 5814 5817 5821 5825 5829 5832 5835 5839 5842 5845 5848 5851 5854
5839 5838 5836 5834 5832 5829 5826 5823 5820 5817 5813 5809 5806 5802 5799 5796 5793 5791 5789 5787 5786 5786 5786 5787 5789 5791 5794 5797 5801 5804 5808 5812 5815 5820 5824 5827 5831 5835 5838 5842 5845 5848 5851
5838 5837 5835 5833 5831 5828 5826 5822 5819 5815 5811 5807 5804 5800 5796 5793 5790 5787 5785 5783 5782 5782 5782 5782 5784 5785 5788 5792 5795 5799 5802 5807 5810 5815 5819 5822 5826 5831 5834 5838 5841 5845 5848
5837 5836 5834 5832 5830 5828 5825 5821 5818 5814 5810 5806 5802 5798 5794 5790 5787 5784 5782 5780 5779 5778 5778 5778 5779 5781 5783 5786 5790 5794 5797 5801 5805 5809 5813 5818 5822 5826 5830 5833 5837 5841 5844
5836 5835 5833 5831 5829 5827 5824 5820 5817 5813 5809 5804 5800 5796 5792 5788 5785 5782 5779 5777 5775 5775 5774 5775 5776 5777 5779 5782 5785 5789 5792 5796 5800 5804 5808 5812 5816 5821 5825 5829 5833 5837 5840
5835 5834 5832 5830 5828 5826 5822 5819 5816 5812 5807 5803 5799 5795 5791 5787 5783 5780 5777 5775 5773 5772 5771 5771 5772 5774 5775 5778 5781 5784 5787 5792 5795 5799 5803 5807 5811 5816 5820 5824 5828 5832 5836
5834 5833 5831 5829 5827 5824 5821 5818 5814 5810 5806 5802 5798 5794 5790 5786 5782 5778 5775 5773 5771 5769 5769 5769 5769 5770 5772 5774 5776 5779 5783 5786 5790 5794 5798 5802 5806 5810 5815 5819 5823 5827 5831
5833 5832 5830 5828 5826 5823 5820 5817 5813 5810 5806 5801 5797 5793 5789 5785 5780 5777 5774 5771 5769 5767 5767 5766 5767 5768 5769 5770 5772 5775 5778 5782 5785 5789 5793 5797 5801 5805 5810 5814 5818 5822 5826
5832 5830 5829 5827 5825 5822 5819 5816 5812 5809 5805 5801 5796 5792 5788 5784 5780 5776 5772 5770 5768 5766 5765 5764 5765 5765 5766 5767 5769 5771 5774 5777 5780 5784 5788 5792 5796 5800 5805 5809 5813 5817 5821
5830 5829 5827 5826 5823 5821 5818 5815 5811 5808 5804 5800 5796 5792 5787 5783 5779 5775 5772 5769 5766 5765 5764 5763 5762 5763 5763 5764 5766 5767 5770 5772 5776 5780 5783 5787 5791 5795 5799 5803 5808 5812 5816
Wind_Speed
9 10 10 10 11 11 11 12 12 13 13 14 14 14 14 15 16 16 17 17 16 16 16 16 15 14 13 12 12 11 10 9 9 8 7 7 6 5 5 4 4 3 3
10 10 11 11 11 12 13 13 14 14 14 15 15 16 17 16 16 17 17 18 18 17 17 17 16 16 15 14 13 12 11 10 9 8 7 6 6 5 5 4 3 3 2
11 11 12 12 12 13 14 15 15 16 16 16 17 17 18 18 18 18 19 19 19 19 18 18 18 17 16 15 14 13 12 10 9 8 7 6 6 5 5 4 3 2 2
12 13 13 13 14 15 16 16 17 18 18 19 19 19 19 19 20 20 21 21 20 20 20 19 19 18 17 16 15 13 12 11 10 9 8 7 6 5 5 4 3 2 2
13 14 14 15 16 16 16 16 17 19 20 20 21 22 22 21 22 23 23 23 22 22 22 21 20 19 18 17 16 15 14 12 11 10 8 7 7 6 5 4 3 3 2
14 15 15 16 16 17 17 18 19 20 21 21 22 23 24 23 24 24 24 24 24 22 22 22 22 20 19 18 17 16 15 13 12 11 10 8 7 6 6 5 4 4 3
15 15 15 16 16 17 18 18 19 20 21 22 23 24 26 26 26 25 25 25 25 24 23 23 23 22 20 20 18 17 16 15 13 12 11 9 8 7 6 6 5 4 4
14 15 16 16 16 17 17 18 19 20 21 22 23 24 25 26 26 26 26 26 25 25 25 25 24 23 22 22 21 19 18 17 15 14 12 11 9 8 8 7 6 5 5
14 15 15 15 16 16 17 17 18 19 20 21 21 22 24 25 26 27 27 27 27 25 25 26 25 24 24 23 23 22 20 18 17 15 14 13 11 10 9 8 7 6 6
14 14 14 14 14 15 15 16 16 17 18 19 19 20 22 23 24 25 26 27 27 27 26 26 26 25 25 24 24 24 22 20 18 17 16 15 13 12 11 10 9 8 7
13 13 13 13 14 14 14 14 15 16 17 17 18 19 20 21 22 23 24 25 26 27 27 27 26 25 25 25 24 25 23 22 21 19 18 17 15 13 12 11 10 9 8
11 12 12 13 13 14 14 15 16 16 17 17 18 19 19 20 21 21 22 24 25 26 27 27 27 26 25 24 24 24 24 23 22 21 20 19 17 15 14 12 12 11 10
11 11 12 13 13 14 15 16 17 17 17 17 18 18 18 19 20 21 21 22 23 24 25 26 27 27 26 25 25 25 24 24 24 22 21 20 19 17 16 14 13 12 11
10 11 12 13 14 15 16 16 17 18 18 18 18 18 18 18 19 20 20 21 22 23 25 25 26 27 27 26 26 26 25 24 25 24 23 22 21 19 18 16 15 14 12
10 11 12 13 14 15 16 17 18 18 19 19 19 19 19 19 19 19 20 20 21 22 24 25 26 26 26 27 26 26 26 25 26 25 25 24 23 21 19 18 17 16 14
10 10 11 13 14 15 16 17 18 19 19 20 20 19 19 19 19 19 19 19 20 21 22 23 24 25 25 27 26 25 26 26 26 25 25 24 24 22 21 20 19 18 16
9 10 11 13 14 16 17 18 19 20 20 20 20 19 19 19 18 18 18 17 17 19 20 21 22 24 25 26 26 25 25 26 26 26 25 25 25 24 22 21 20 19 18
9 10 11 13 15 16 18 19 20 20 20 20 20 19 19 19 18 18 17 16 16 16 17 19 20 22 24 25 26 26 26 25 26 26 26 25 25 25 24 23 22 21 19
9 10 12 13 15 16 18 19 20 20 21 20 20 20 19 18 18 17 16 15 15 15 15 16 18 20 22 24 24 26 26 26 26 27 28 27 26 26 25 25 24 22 22
9 10 12 13 15 17 18 19 20 20 21 20 20 20 19 19 17 16 15 14 14 14 14 14 15 17 19 22 23 24 25 25 26 26 27 28 28 26 26 26 25 24 23
9 10 12 14 15 17 18 19 20 20 21 20 20 20 19 19 18 16 15 14 13 13 12 13 14 15 17 19 21 23 24 25 26 25 26 28 28 28 27 26 26 25 24
9 10 12 14 15 16 18 18 19 20 21 20 20 20 20 19 18 17 15 13 12 11 11 11 12 13 15 17 19 21 23 24 25 25 26 27 28 28 28 27 27 26 25
9 11 12 14 15 16 18 18 19 20 20 20 20 19 19 19 18 17 14 13 11 10 9 10 11 11 13 15 17 19 21 22 24 25 26 27 28 28 28 27 27 28 27
9 11 12 14 15 16 17 18 19 20 20 20 20 20 19 19 18 16 15 13 12 10 9 9 10 11 11 13 15 17 19 21 22 23 25 25 27 28 28 27 27 27 27
9 11 12 13 15 16 17 18 19 19 20 20 20 20 19 19 18 16 15 13 12 10 8 8 9 10 11 12 14 16 17 20 21 22 23 25 26 27 27 27 27 28 27
9 11 12 13 14 16 17 18 19 19 19 20 20 20 19 18 18 17 15 13 12 10 9 8 8 9 10 11 12 14 16 18 20 22 22 23 25 27 27 27 28 28 28
Wind_Direction
296 296 292 288 287 283 278 273 269 262 260 261 259 253 252 250 246 245 246 248 247 247 249 250 251 251 254 259 263 265 268 274 279 281 286 290 292 293 294 293 297 292 297
297 295 291 288 285 284 282 277 272 269 267 264 263 260 255 252 251 251 250 252 250 251 251 251 251 251 254 256 259 261 261 267 271 276 280 283 284 284 286 288 286 281 291
298 298 295 291 286 283 282 279 275 272 269 268 267 264 261 255 253 251 252 254 253 251 251 252 251 251 252 253 255 256 256 260 264 267 270 272 274 276 277 277 271 269 272
299 297 295 292 290 287 285 281 277 273 269 270 268 267 265 260 256 255 253 254 256 254 252 252 253 251 250 251 252 252 252 254 257 259 258 259 264 269 268 265 257 253 241
300 296 294 292 290 288 287 284 280 277 272 271 270 266 266 265 261 259 257 256 258 255 254 252 252 251 249 247 247 248 247 248 250 251 250 249 253 258 257 251 243 232 217
301 298 296 295 293 290 287 285 283 281 276 272 271 268 266 267 265 262 259 259 258 257 256 255 250 249 248 245 244 245 246 243 244 245 243 243 245 248 247 240 232 219 209
305 304 302 300 296 293 292 290 287 285 282 277 274 272 270 268 267 264 261 259 259 257 257 255 251 249 245 243 243 244 241 239 240 240 240 240 240 241 240 234 226 213 201
309 309 307 306 304 300 297 294 290 288 286 283 280 276 273 270 268 265 263 262 263 259 257 253 250 249 245 242 242 241 240 237 237 236 235 235 235 235 234 229 221 211 202
314 312 310 310 311 309 305 301 296 293 290 287 285 281 277 273 270 267 265 263 262 262 258 254 250 249 245 243 241 240 240 236 234 234 231 231 230 229 230 226 218 212 205
319 319 319 319 319 317 314 311 307 303 299 295 292 287 282 278 275 272 269 265 262 260 258 255 252 250 246 243 240 239 239 236 234 232 230 227 228 227 227 223 217 213 208
326 328 329 331 331 330 328 323 319 314 309 305 300 296 291 286 281 275 271 267 263 259 257 255 254 251 247 243 241 238 238 235 234 231 228 226 225 224 223 222 218 213 210
330 334 337 338 339 337 335 332 328 322 315 311 307 301 295 291 286 280 273 268 265 261 258 256 253 251 246 243 242 239 236 233 231 229 228 226 224 223 222 219 216 214 211
335 338 341 341 340 337 335 334 331 329 324 319 315 308 302 297 291 286 279 271 266 263 259 255 253 251 248 244 244 241 237 233 229 228 228 226 225 223 221 217 216 215 214
337 342 343 342 342 341 339 337 335 333 329 324 319 315 310 304 297 291 284 275 268 264 260 256 253 251 248 244 243 241 237 234 230 226 228 226 223 222 220 218 216 216 215
340 341 342 342 342 342 342 341 339 335 331 327 322 316 312 307 301 294 288 280 271 265 261 258 253 249 248 244 243 240 236 233 230 228 228 226 221 220 220 218 216 216 216
340 341 340 340 342 344 345 343 341 339 336 331 327 321 315 311 305 299 292 285 276 268 263 259 254 249 244 243 242 239 234 232 230 230 229 224 220 219 219 219 217 217 218
338 341 341 341 342 343 344 344 343 341 339 335 332 326 321 316 311 304 297 291 282 272 265 259 254 249 242 241 241 238 234 233 229 228 226 223 222 220 220 221 219 219 220
337 339 341 342 343 342 342 342 342 341 340 338 336 332 327 321 316 310 301 294 289 278 268 261 254 247 242 240 238 236 235 232 227 226 223 224 223 223 223 223 222 221 222
338 340 342 342 343 342 341 342 342 342 342 340 338 335 331 328 322 316 308 299 292 283 272 263 255 248 242 238 237 235 235 233 228 226 226 224 222 223 224 224 224 224 224
338 340 341 342 341 341 341 341 342 343 343 341 340 339 337 334 329 322 313 305 296 287 276 265 255 248 242 238 236 235 234 233 231 229 226 224 223 222 223 224 225 225 225
335 337 339 341 341 341 341 342 343 344 344 343 342 341 339 338 335 329 320 310 301 292 280 265 255 249 243 239 237 236 234 233 231 229 225 222 223 223 223 224 225 226 224
333 337 338 339 340 342 343 343 344 345 345 345 344 342 342 341 338 334 328 320 309 296 282 268 258 251 245 239 237 235 233 231 231 229 226 225 225 223 223 224 225 225 226
331 335 337 338 339 341 343 344 345 346 347 347 346 345 344 343 340 338 333 328 318 304 287 276 261 253 245 240 237 234 232 230 231 231 229 228 226 224 223 224 224 224 226
326 332 334 336 338 340 343 344 346 346 348 348 348 347 346 346 344 341 338 334 327 314 297 284 269 258 251 244 238 235 232 229 229 230 230 228 224 224 224 225 225 225 227
322 328 332 335 337 341 343 345 346 347 348 349 349 349 348 347 347 346 343 340 334 324 307 290 277 268 258 247 241 237 234 230 228 228 227 226 226 224 225 225 225 228 228
318 325 330 334 336 340 343 345 346 347 348 349 350 350 350 350 350 348 346 343 338 331 320 302 284 272 261 253 246 239 234 230 227 226 226 227 228 226 227 228 228 228 229